Find Starlink 6220

NORAD ID: 56482 Int'l Des: 2023-064 Owner: SPXS Country: US Constellation: starlink operational
LEOCIRCULAR

Current View

Loading 3D Globe...

About Starlink 6220

Description loading...

Upcoming Passes

Passes for default location (London). Set your location on the main map for personalized predictions.

Altitude History

Loading altitude history...

Two-Line Element Set

1 56482U 23064AL 26150.76207669 .00000184 00000-0 23249-4 0 9994
2 56482 69.9993 277.4897 0003072 267.0532 93.0275 14.98329281168034
Epoch: May 30, 2026 • Age: 17 hours

Current Status

Altitude 579.5 km
Velocity 7.57 km/s
Sub-Earth Point -24.26°S, 47.72°E
Launch Date May 10, 2023
Age 3 years
Type internet

Technical Details

Classification Payload
Mass 305.00 kg
Dry Mass 290.00 kg
Total Mass 305.00 kg
Length 0.20 m
Diameter 2.80 m
Span 9.00 m
Shape Box + pan
Manufacturer SPXS
Bus Type Starlink
Phase Status In Orbit
Owner/State SPXS/US

Most Searched